This demonstration page uses our WeatherBlox Daily Observations layout. Learn more.

Left ArrowRight Arrow

38.20091, -84.87328

Hourly Observations for July 5, 2018

Temp ( °F °C ) Dew Point ( °F °C ) Humidity (%) Winds ( mph kmh ) Pressure ( in mb ) Visibility ( mi km ) Precip ( " mm )
12:53 am 00:53 Clear 79 26.1 74 23.3 85 85 Calm 30.19 1023 10 16 0.00 0.00
1:53 am 01:53 Clear 78 25.6 73 22.8 85 85 N 3 6 30.20 1023 10 16 0.00 0.00
2:53 am 02:53 Clear 79 26.1 73 22.8 82 82 Calm 30.21 1023 10 16 0.00 0.00
3:53 am 03:53 Clear 77 25 73 22.8 88 88 NNW 5 7 30.21 1023 10 16 0.00 0.00
4:53 am 04:53 Clear 76 24.4 72 22.2 88 88 Calm 30.21 1023 9 14 0.00 0.00
5:53 am 05:53 Clear 75 23.9 72 22.2 90 90 Calm 30.21 1023 10 16 0.00 0.00
6:53 am 06:53 Sunny 76 24.4 72 22.2 88 88 NNW 5 7 30.21 1023 7 11 0.00 0.00
7:53 am 07:53 Sunny 80 26.7 74 23.3 82 82 E 3 6 30.22 1023 8 13 0.00 0.00
8:53 am 08:53 Sunny 83 28.3 74 23.3 74 74 SE 5 7 30.23 1024 10 16 0.00 0.00
9:53 am 09:53 Partly Cloudy with Mist and Fog 88 31 N/A N/A SW 3 6 30.24 1024 2 3 0.00 0.00
10:00 am 10:00 Sunny 86 30 72 22.2 63 63 Calm 30.24 1024 10 16 0.00 0.00
10:53 am 10:53 Sunny 88 31.1 75 23.9 66 66 Calm 30.25 1025 10 16 0.00 0.00
11:53 am 11:53 Sunny 91 32.8 78 25.6 66 66 Calm 30.24 1024 10 16 0.00 0.00
12:53 pm 12:53 Sunny 93 33.9 74 23.3 54 54 Calm 30.22 1023 10 16 0.00 0.00
1:53 pm 13:53 Mostly Sunny 93 33.9 75 23.9 56 56 NW 6 9 30.21 1023 10 16 0.00 0.00
2:40 pm 14:40 Partly Cloudy with Thunderstorms 89 31.7 75 23.9 63 63 SE 5 7 30.21 1023 10 16 0.03 0.76
2:53 pm 14:53 Sunny with Thunderstorms 89 31.7 75 23.9 63 63 E 6 9 30.21 1023 10 16 0.03 0.76
3:21 pm 15:21 Mostly Cloudy with Rain 81 27.2 71 21.7 72 72 E 10 17 30.21 1023 6 10 0.04 1.02
3:35 pm 15:35 Mostly Cloudy with Nearby Thunderstorms 83 28.3 73 22.8 72 72 ESE 6 9 30.18 1022 10 16 0.04 1.02
3:50 pm 15:50 Partly Cloudy 88 31 75 24 66 66 ESE 6 9 30.18 1022 10 16 0.04 1.02
3:53 pm 15:53 Mostly Sunny 89 31.7 75 23.9 63 63 E 3 6 30.18 1022 10 16 0.04 1.02
4:09 pm 16:09 Sunny with Nearby Thunderstorms 92 33.3 76 24.4 60 60 SE 3 6 30.15 1021 10 16 0.00 0.00
4:24 pm 16:24 Sunny 92 33.3 78 25.6 64 64 SSE 5 7 30.15 1021 10 16 0.00 0.00
4:53 pm 16:53 Sunny 93 33.9 76 24.4 58 58 SW 5 7 30.17 1022 10 16 0.00 0.00
5:33 pm 17:33 Partly Cloudy with Nearby Thunderstorms 93 33.9 75 23.9 56 56 NNW 6 9 30.15 1021 10 16 0.00 0.00
5:53 pm 17:53 Partly Cloudy 94 34.4 73 22.8 51 51 N 8 13 30.17 1022 10 16 0.00 0.00
6:53 pm 18:53 Sunny 89 31.7 75 23.9 63 63 NW 5 7 30.17 1022 10 16 0.00 0.00
7:53 pm 19:53 Mostly Sunny 85 29.4 73 22.8 68 68 NE 9 15 30.19 1022 10 16 0.00 0.00
8:53 pm 20:53 Sunny 82 27.8 70 21.1 67 67 Calm 30.19 1022 10 16 0.00 0.00
9:53 pm 21:53 Clear 79 26.1 70 21.1 74 74 Calm 30.21 1023 10 16 0.00 0.00
10:53 pm 22:53 Clear 79 26.1 69 20.6 72 72 Calm 30.22 1023 10 16 0.00 0.00
11:53 pm 23:53 Clear 77 25 70 21.1 79 79 Calm 30.19 1023 10 16 0.00 0.00

Powered by AerisWeather